Temp
7 6 8 8 7 6 6 7 7 8 7 7 8 9 8 8 8 9 9 8 9 9 9 8 8 8 8 8 8 8 7 7 7 7 7 7 7 6 6 6 6 6 6 6
6 7 8 7 7 7 6 6 7 8 7 6 7 8 9 9 9 9 9 9 9 9 9 9 8 8 8 8 8 8 7 7 7 6 6 6 6 6 6 6 6 6 6 6
6 7 7 7 7 6 7 7 7 6 6 5 6 7 9 11 10 10 10 10 10 10 10 9 9 8 8 8 8 7 7 7 7 6 6 6 6 6 6 6 6 6 6 5
5 6 6 6 6 6 7 7 6 6 5 4 4 3 8 10 10 10 11 11 11 10 9 9 9 8 8 8 7 7 7 7 6 6 6 6 6 6 5 5 5 5 5 5
6 6 6 6 7 6 6 5 5 5 5 4 3 3 6 8 10 11 11 11 11 10 9 9 9 9 8 8 8 7 6 6 6 6 5 5 5 5 5 5 5 4 4 4
5 5 5 5 5 5 5 4 4 4 3 0 4 4 8 8 10 10 11 10 9 9 9 9 9 9 9 8 8 8 7 6 5 5 5 5 5 5 5 5 5 5 4 4
4 4 4 4 4 4 4 3 3 0 -3 -0 4 3 8 8 8 9 10 10 9 9 9 9 8 8 8 8 8 7 7 6 5 5 5 4 4 4 4 4 4 4 4 4
4 3 5 5 5 4 4 4 4 -1 -3 -1 1 2 7 8 8 8 10 9 9 8 8 8 8 8 8 8 7 7 7 6 5 5 4 4 4 4 4 4 4 4 3 3
3 3 4 5 5 3 3 2 3 4 3 0 4 6 6 8 8 9 10 10 10 9 8 8 8 7 7 7 7 7 6 6 5 4 4 4 3 3 3 3 3 3 3 2
2 2 4 4 3 3 2 3 2 2 -2 -4 3 3 5 7 8 8 9 9 8 8 8 7 7 7 7 7 7 7 7 6 5 4 4 3 3 3 3 3 3 3 2 2
2 1 2 2 3 4 2 1 2 2 3 -3 -4 5 8 7 7 8 8 8 7 7 7 6 6 6 6 6 6 6 6 6 5 4 4 3 3 3 2 2 2 2 2 2
4 1 1 2 2 3 3 4 3 3 0 2 2 4 6 6 6 7 7 8 7 7 6 7 7 6 5 5 6 6 6 5 5 4 4 3 3 3 2 2 2 2 2 1
3 -0 -0 1 1 1 1 2 2 2 3 3 -0 4 5 5 6 6 6 6 6 6 6 6 6 5 5 5 5 5 5 5 4 4 4 4 3 3 2 2 2 1 1 1
1 -0 -1 0 2 2 1 2 2 2 1 2 2 5 5 4 5 6 5 5 5 6 6 6 5 4 4 4 4 4 4 4 4 4 4 4 3 3 2 2 1 1 1 -0
-0 -1 -1 -0 -0 0 2 2 1 1 2 0 4 2 6 4 5 4 4 4 4 4 5 5 4 4 4 3 3 3 3 3 3 4 4 4 3 3 2 2 1 1 0 -1
-1 -2 -2 -1 -1 -1 -0 0 1 1 1 0 1 1 6 5 4 4 3 3 3 4 3 4 3 3 3 2 3 3 2 2 2 3 3 3 3 3 2 2 1 1 -0 -2
-1 -2 -2 -2 0 -1 -2 0 1 1 1 1 -0 5 5 5 4 5 4 4 3 3 3 3 3 3 3 3 3 4 3 2 2 2 2 3 3 2 2 1 1 -0 -1 -2
-2 -2 -2 -2 -2 -2 0 1 1 0 2 2 1 4 6 4 4 4 4 4 4 4 3 3 4 4 4 4 4 3 3 3 2 2 2 2 2 2 1 1 -0 -1 -2 -3
-3 -2 -3 -2 -2 -1 -1 2 2 0 3 3 3 4 5 4 3 5 4 4 4 4 4 4 4 4 3 3 3 3 3 3 3 2 1 1 1 1 0 -1 -1 -2 -4 -4
-3 -4 -3 -3 -2 -1 1 4 1 -0 -0 6 3 4 4 3 2 6 4 4 4 4 3 3 3 3 3 3 2 2 2 2 2 2 1 0 0 0 -2 -3 -4 -5 -5 -6
-3 -4 -3 -3 -2 -2 0 1 1 -2 1 3 2 3 3 3 3 3 3 3 3 3 2 2 2 2 2 2 2 1 1 1 1 1 0 -0 -0 -1 -3 -5 -6 -6 -6 -7
-3 -3 -3 -3 -2 -2 -1 0 -1 0 1 1 1 1 1 1 1 2 2 2 1 1 1 0 0 0 -0 0 0 -0 0 0 0 -0 -0 -0 -0 -1 -5 -6 -7 -7 -7 -7
-4 -3 -3 -3 -3 -2 -2 -2 -2 -2 -2 -1 -0 0 -1 -0 -0 -0 -0 -0 -0 -0 -1 -1 -1 -1 -1 -1 -1 -1 -1 -1 -1 -1 -1 -2 -4 -4 -5 -6 -6 -6 -7 -8
-5 -5 -5 -5 -4 -3 -3 -2 -1 -1 0 0 -1 -0 -1 -1 -1 -1 -1 -1 -2 -2 -2 -2 -3 -3 -3 -3 -3 -3 -3 -3 -4 -4 -5 -5 -6 -7 -7 -7 -8 -8 -9 -10
-5 -4 -4 -4 -2 -1 -1 -2 -1 -1 -1 -1 -1 -1 -1 -2 -2 -2 -2 -3 -3 -4 -4 -4 -4 -5 -5 -5 -5 -5 -5 -5 -5 -6 -6 -6 -7 -8 -10 -11 -11 -11 -11 -11
-5 -5 -5 -4 -3 -3 -1 -2 -3 -2 -2 -2 -2 -2 -3 -3 -3 -4 -4 -4 -5 -5 -5 -5 -5 -6 -6 -7 -6 -6 -7 -7 -7 -8 -8 -8 -9 -9 -9 -9 -10 -10 -10 -10
Height
3144 3146 3147 3150 3151 3150 3151 3151 3151 3151 3151 3149 3147 3144 3147 3150 3147 3147 3149 3149 3150 3150 3154 3153 3152 3153 3154 3155 3156 3157 3157 3159 3160 3161 3162 3163 3164 3164 3165 3165 3167 3167 3168 3169
3141 3140 3145 3145 3146 3146 3146 3147 3147 3148 3147 3145 3142 3136 3138 3140 3141 3141 3143 3142 3143 3144 3146 3146 3146 3146 3147 3148 3149 3150 3151 3152 3154 3155 3156 3157 3158 3158 3158 3159 3160 3161 3162 3163
3135 3139 3139 3141 3141 3142 3143 3142 3144 3145 3143 3140 3136 3126 3130 3133 3132 3134 3136 3136 3135 3135 3137 3138 3138 3138 3138 3139 3141 3142 3144 3145 3146 3147 3149 3150 3151 3152 3152 3153 3154 3155 3156 3158
3130 3133 3134 3135 3136 3140 3136 3139 3140 3140 3140 3135 3131 3121 3119 3124 3124 3126 3129 3128 3127 3127 3127 3128 3129 3128 3129 3132 3132 3133 3134 3136 3137 3139 3141 3143 3144 3145 3145 3145 3147 3149 3150 3152
3123 3126 3128 3129 3132 3136 3133 3135 3136 3136 3136 3131 3125 3130 3108 3113 3114 3119 3120 3120 3119 3119 3117 3118 3119 3120 3120 3119 3121 3123 3124 3126 3128 3131 3133 3135 3136 3138 3138 3138 3139 3141 3143 3145
3116 3119 3122 3124 3127 3130 3129 3130 3132 3132 3131 3123 3116 3123 3095 3102 3106 3108 3113 3112 3111 3111 3110 3111 3112 3113 3113 3112 3112 3112 3114 3116 3119 3121 3124 3126 3128 3129 3130 3131 3133 3135 3136 3138
3108 3109 3113 3117 3120 3123 3124 3127 3130 3130 3128 3114 3110 3113 3090 3095 3101 3101 3103 3105 3103 3104 3106 3106 3106 3105 3104 3104 3103 3103 3104 3107 3110 3113 3115 3117 3119 3120 3122 3123 3125 3127 3129 3131
3103 3103 3104 3107 3109 3114 3117 3119 3122 3125 3122 3108 3106 3094 3083 3090 3091 3095 3096 3097 3098 3098 3099 3099 3098 3097 3096 3096 3095 3095 3096 3098 3101 3105 3108 3109 3110 3111 3113 3115 3118 3120 3122 3124
3098 3097 3096 3100 3102 3108 3108 3109 3112 3116 3113 3112 3095 3084 3080 3083 3085 3087 3089 3091 3092 3093 3093 3093 3093 3092 3090 3088 3087 3088 3089 3092 3094 3097 3099 3101 3102 3104 3106 3108 3110 3113 3115 3117
3093 3093 3092 3093 3096 3099 3099 3102 3107 3110 3112 3114 3083 3077 3071 3077 3079 3081 3083 3083 3086 3087 3088 3089 3089 3087 3085 3083 3082 3081 3082 3084 3087 3089 3090 3092 3093 3095 3097 3099 3102 3105 3107 3108
3086 3089 3086 3087 3086 3087 3094 3094 3097 3098 3098 3096 3095 3068 3067 3073 3076 3077 3078 3081 3081 3082 3083 3082 3082 3081 3080 3078 3078 3077 3077 3078 3078 3079 3080 3082 3084 3086 3088 3091 3094 3096 3098 3100
3078 3080 3079 3079 3081 3083 3083 3083 3085 3087 3090 3091 3087 3059 3063 3067 3072 3076 3078 3078 3077 3078 3077 3076 3076 3075 3074 3073 3072 3072 3071 3071 3071 3072 3072 3073 3075 3076 3079 3082 3085 3088 3090 3092
3072 3071 3075 3075 3075 3071 3072 3074 3079 3082 3084 3078 3080 3050 3057 3060 3066 3070 3073 3073 3074 3073 3072 3070 3071 3071 3069 3068 3067 3066 3065 3065 3065 3064 3064 3064 3066 3067 3070 3073 3076 3079 3082 3084
3066 3062 3062 3060 3061 3063 3061 3061 3067 3072 3074 3053 3065 3039 3052 3054 3060 3064 3066 3068 3068 3067 3065 3063 3064 3063 3062 3061 3060 3059 3058 3058 3057 3056 3056 3057 3058 3060 3062 3065 3068 3070 3072 3074
3056 3052 3053 3050 3055 3057 3057 3057 3059 3060 3049 3061 3039 3052 3025 3048 3050 3052 3055 3056 3057 3058 3057 3056 3055 3054 3052 3051 3050 3050 3049 3049 3049 3048 3048 3049 3050 3052 3053 3056 3058 3060 3062 3063
3042 3042 3045 3040 3044 3046 3047 3049 3049 3043 3044 3050 3038 3036 3019 3039 3040 3040 3041 3044 3044 3045 3046 3046 3044 3042 3041 3040 3039 3039 3039 3039 3039 3039 3040 3040 3041 3042 3044 3046 3048 3049 3050 3052
3031 3032 3034 3029 3029 3036 3033 3028 3028 3034 3032 3034 3032 3013 3026 3026 3029 3029 3032 3033 3031 3033 3033 3031 3030 3028 3027 3027 3027 3028 3027 3027 3028 3029 3031 3032 3032 3033 3034 3036 3037 3038 3040 3042
3015 3020 3024 3021 3023 3014 3008 3016 3018 3018 3015 3019 3021 3011 3011 3016 3019 3019 3019 3019 3019 3020 3019 3018 3016 3015 3015 3015 3016 3016 3016 3016 3017 3017 3019 3021 3022 3022 3023 3025 3027 3028 3030 3032
3005 3009 3010 3008 3001 3001 3002 2998 2998 2998 2998 3009 3005 3003 3001 3010 3010 3004 3011 3011 3009 3009 3008 3008 3006 3005 3005 3006 3006 3006 3006 3006 3005 3006 3007 3009 3011 3012 3013 3015 3017 3018 3020 3021
2992 2996 3001 2997 2983 2981 2981 2985 2992 2997 2992 2990 2994 2993 2996 3001 2999 2994 2997 3001 3001 3000 2999 2999 2998 2998 2997 2996 2996 2996 2996 2995 2995 2995 2996 2998 2999 3000 3002 3003 3005 3007 3008 3009
2972 2973 2975 2978 2978 2969 2973 2978 2981 2983 2983 2977 2981 2987 2990 2990 2991 2990 2988 2990 2992 2991 2990 2990 2989 2988 2988 2987 2986 2985 2984 2983 2983 2983 2984 2985 2986 2986 2988 2991 2992 2995 2996 2996
2955 2957 2958 2964 2966 2966 2966 2968 2969 2973 2976 2977 2975 2978 2980 2982 2982 2982 2981 2980 2981 2981 2979 2978 2978 2977 2978 2977 2976 2974 2972 2971 2971 2972 2973 2975 2976 2976 2977 2977 2980 2983 2987 2988
2951 2945 2944 2947 2949 2957 2960 2959 2962 2966 2964 2969 2969 2968 2969 2971 2972 2972 2972 2971 2969 2967 2967 2967 2967 2966 2966 2965 2964 2963 2963 2962 2962 2963 2964 2965 2967 2968 2970 2971 2974 2975 2978 2981
2938 2943 2944 2946 2944 2945 2949 2952 2955 2956 2957 2959 2959 2957 2958 2961 2961 2961 2960 2959 2957 2956 2956 2956 2956 2956 2956 2955 2955 2956 2957 2957 2957 2956 2958 2960 2961 2963 2966 2968 2969 2970 2972 2975
2935 2935 2935 2934 2934 2938 2939 2942 2944 2944 2946 2947 2948 2949 2948 2949 2948 2949 2949 2948 2948 2948 2948 2949 2949 2950 2950 2949 2949 2950 2950 2952 2952 2953 2954 2956 2957 2957 2960 2962 2964 2966 2968 2970
2925 2924 2926 2923 2926 2928 2930 2933 2936 2936 2937 2937 2939 2940 2939 2940 2939 2938 2939 2939 2940 2942 2942 2943 2945 2946 2947 2947 2945 2946 2947 2949 2950 2951 2952 2954 2956 2957 2959 2961 2962 2964 2964 2964
Wind_Speed
20 20 21 15 13 16 17 18 20 19 19 23 25 29 25 20 26 26 25 25 25 25 17 23 25 26 27 27 26 25 27 28 27 26 25 23 24 25 25 24 24 25 24 25
23 26 16 17 18 19 20 20 21 21 21 25 27 35 31 28 27 28 29 29 27 27 28 28 29 30 29 29 28 29 28 30 30 29 28 26 26 26 28 27 26 26 26 26
21 16 14 15 19 21 21 22 21 21 23 28 32 42 36 30 31 29 27 29 31 30 29 28 31 32 33 33 33 32 31 32 33 33 31 29 28 28 28 29 28 28 28 28
21 25 26 26 26 20 28 23 22 21 20 21 18 14 41 36 35 33 29 25 25 28 28 28 28 33 34 33 34 35 36 36 36 36 35 33 31 29 28 28 30 29 30 29
27 24 23 27 28 24 28 24 21 20 20 28 27 16 32 34 40 38 31 24 19 17 25 29 29 30 34 38 37 35 37 38 39 38 37 36 35 32 32 32 32 30 31 31
38 36 32 28 25 19 22 17 14 17 18 13 25 22 46 38 38 29 32 23 24 22 23 20 20 21 25 27 31 38 40 39 39 38 38 38 36 35 34 33 33 32 32 32
42 44 41 39 34 28 24 16 4 4 2 9 5 15 44 34 30 22 24 22 10 12 20 20 25 29 30 29 29 32 38 39 38 38 37 36 36 37 35 34 34 34 33 34
25 25 40 44 44 31 27 32 16 7 4 6 9 16 26 33 28 35 28 13 17 19 17 21 25 27 28 30 31 31 34 36 36 36 35 35 35 36 36 35 35 35 34 33
11 20 25 23 18 28 29 34 31 26 23 10 18 39 45 37 21 13 13 25 12 9 11 12 14 17 20 23 25 26 27 31 32 33 35 36 35 35 35 34 35 36 36 35
23 22 21 17 22 24 35 19 13 16 3 5 13 20 27 23 19 8 11 14 8 7 7 8 15 21 23 21 22 24 24 29 31 32 35 36 36 35 36 36 36 37 37 37
34 28 18 17 28 31 30 33 19 13 12 5 3 20 22 18 13 6 9 13 7 9 11 9 26 24 24 22 21 20 24 26 31 35 37 37 36 37 38 37 37 38 39 39
24 19 32 39 29 24 32 39 42 20 8 16 19 41 19 17 15 14 14 17 21 16 17 20 33 26 23 18 16 20 20 24 28 32 34 35 36 38 39 39 39 40 41 40
28 23 25 20 26 29 33 39 38 38 32 35 12 42 8 10 19 18 22 24 23 22 26 31 38 31 24 23 23 21 20 22 25 29 32 35 36 39 40 40 41 41 42 42
39 31 32 32 18 14 33 46 42 41 29 54 38 67 56 39 31 28 23 26 31 29 35 43 41 30 30 32 30 27 25 25 25 28 32 34 35 38 40 41 41 43 43 43
41 38 40 51 47 33 29 19 22 43 52 36 59 48 69 55 51 49 44 41 38 42 44 42 42 43 40 40 37 33 30 28 27 29 29 31 34 38 41 43 44 45 46 46
38 42 39 52 52 50 47 42 42 47 46 42 58 60 62 52 52 52 52 47 44 41 43 49 50 45 42 40 36 36 34 32 31 30 30 30 33 39 42 45 46 49 49 47
41 43 39 38 50 46 34 62 65 63 65 63 56 64 57 59 58 54 49 50 52 49 44 42 43 43 39 38 37 38 38 37 34 33 32 33 33 38 43 47 49 51 50 48
43 41 43 34 35 16 49 48 51 45 45 48 54 58 52 52 47 43 42 42 37 36 38 34 35 37 36 36 37 37 39 40 40 39 38 37 37 39 43 47 50 50 50 48
47 45 40 40 42 40 38 53 54 50 51 41 47 47 48 34 34 39 34 32 36 32 27 28 32 33 31 29 29 31 33 37 39 43 44 42 38 39 42 45 48 49 48 47
60 56 50 30 17 20 54 62 54 27 32 59 46 47 44 37 38 29 30 23 23 24 25 29 29 32 32 31 31 34 35 35 38 41 42 40 39 37 39 43 46 47 47 46
42 57 58 55 30 17 29 37 27 28 36 47 36 25 25 29 31 29 31 26 25 29 34 34 35 35 37 39 43 42 39 37 38 41 41 41 40 39 39 42 44 43 45 47
42 32 44 49 35 20 37 37 30 29 31 34 30 31 38 36 29 30 33 36 33 35 42 39 40 38 37 40 42 42 37 34 35 38 38 38 40 39 40 42 43 43 42 46
25 24 9 25 18 36 32 25 22 22 20 33 39 39 37 37 38 32 34 37 45 47 45 41 39 38 37 40 37 30 29 28 28 29 30 28 30 32 34 34 31 29 32 30
49 46 40 34 32 32 34 33 28 34 30 38 41 40 40 39 40 41 42 46 43 42 43 42 38 33 26 22 22 20 20 20 20 21 18 15 12 9 5 7 9 10 13 19
40 39 39 45 42 44 38 39 38 38 40 38 36 40 41 37 34 34 34 32 31 30 30 22 18 20 22 19 17 16 16 16 14 13 13 13 13 12 12 13 14 15 17 20
40 44 45 43 39 38 39 38 40 41 35 36 36 35 37 38 28 23 21 19 18 17 17 16 15 11 8 6 6 6 6 6 6 7 7 9 10 13 14 15 15 17 19 21
Wind_Direction
243 242 246 268 273 266 267 269 275 284 283 281 280 280 276 268 266 264 261 261 261 259 256 258 263 262 260 260 262 261 253 249 250 253 255 258 262 261 259 258 255 253 251 244
245 250 259 255 252 258 262 268 276 288 286 282 284 279 279 272 268 269 271 266 265 262 260 261 263 264 263 261 260 259 256 251 251 253 255 257 261 261 258 254 251 249 247 243
251 253 249 246 250 257 267 270 282 288 290 284 285 282 281 281 274 271 272 277 273 270 268 266 266 266 262 260 261 261 259 255 251 252 254 256 261 264 262 257 251 247 244 238
259 249 251 255 256 262 269 275 278 281 285 283 280 289 284 285 281 283 289 289 285 276 269 264 260 259 260 260 262 260 255 252 251 252 254 257 261 264 262 254 252 247 241 237
247 257 256 258 264 265 271 271 275 277 276 280 270 269 283 286 287 295 300 296 286 272 261 257 259 258 259 256 253 251 250 249 249 251 253 255 257 261 259 252 246 242 239 235
246 249 254 257 259 254 258 263 268 274 272 269 262 244 281 278 289 295 305 301 274 263 257 251 257 263 270 269 263 251 245 245 245 247 250 254 256 256 257 253 248 244 238 235
242 245 247 251 253 250 244 241 269 291 193 243 260 224 264 278 283 297 309 306 236 276 276 258 272 272 270 269 263 258 250 246 244 246 249 253 255 255 252 249 245 242 241 238
240 251 253 249 249 245 244 239 219 214 208 271 289 239 268 283 279 287 290 300 273 268 262 267 271 276 278 276 266 259 251 247 245 244 249 253 254 251 248 248 245 242 238 235
232 247 253 252 250 238 230 225 247 245 271 293 266 270 278 280 293 291 287 287 261 232 255 279 296 300 300 286 268 261 253 246 243 242 247 250 253 253 250 248 245 242 239 235
239 253 255 250 235 228 223 237 202 198 195 248 267 274 264 282 305 294 290 251 192 272 257 300 322 311 299 300 282 262 254 242 238 240 245 249 251 252 246 245 242 241 239 239
236 235 252 242 232 234 219 225 217 212 218 184 289 272 282 291 301 280 194 183 289 261 246 283 332 321 315 291 286 281 261 253 244 242 246 250 253 251 242 242 240 240 240 240
247 235 244 248 251 243 235 239 228 216 216 226 245 265 284 251 248 264 231 251 267 274 248 292 316 319 309 313 291 279 279 266 258 252 250 251 252 247 240 239 239 240 241 242
242 221 240 257 249 243 235 235 238 240 240 242 210 259 253 258 303 267 249 250 276 264 270 288 306 308 306 302 293 291 287 284 274 263 258 256 253 245 240 238 239 240 241 242
254 233 229 231 231 260 235 242 237 233 227 246 240 260 261 262 262 265 259 273 280 264 276 286 300 296 298 296 293 290 285 280 284 278 269 262 256 248 243 241 241 241 242 242
243 237 239 250 252 253 247 235 239 231 245 232 261 255 271 272 278 281 279 275 266 264 273 286 292 296 293 293 292 287 280 276 274 273 274 269 258 250 245 243 243 243 242 242
238 237 244 252 252 246 246 252 249 247 254 258 264 268 266 271 276 279 280 281 281 276 279 288 291 290 288 288 282 278 277 272 269 268 267 267 263 254 250 247 246 244 243 243
234 232 237 243 259 253 256 247 248 253 256 258 254 269 285 276 277 283 287 286 284 285 287 284 286 285 281 277 271 271 268 264 261 261 263 260 260 260 255 250 248 246 245 245
232 238 237 247 255 230 251 262 266 265 269 264 263 270 272 276 283 287 283 281 284 285 283 283 280 273 272 269 271 269 268 264 258 255 258 259 257 257 257 253 250 248 247 247
234 236 240 231 237 250 263 259 254 244 260 271 271 279 280 282 283 278 276 279 277 282 281 280 283 277 274 276 277 278 276 271 263 258 257 260 262 262 260 255 252 250 248 247
239 244 232 241 237 239 245 260 260 246 253 268 272 275 280 281 274 278 289 277 271 277 282 283 285 284 281 274 283 291 283 278 270 262 259 261 260 257 255 253 251 249 248 244
234 224 227 232 239 244 244 246 247 206 248 262 273 278 272 273 283 282 283 273 261 271 284 286 278 283 280 278 282 287 284 281 271 263 259 257 254 248 244 246 247 248 245 241
220 210 221 228 237 236 240 246 241 248 253 256 270 281 285 282 277 276 277 277 273 274 288 284 281 285 281 280 285 288 281 276 268 261 261 261 257 249 244 242 243 243 250 255
236 227 261 224 229 238 251 255 261 272 246 275 276 278 279 278 279 273 272 275 284 288 289 284 285 288 283 283 283 276 272 269 268 266 263 260 258 261 263 261 262 264 265 263
273 273 269 278 279 286 288 281 267 258 270 275 277 275 274 275 271 271 273 277 280 283 284 285 285 286 282 274 273 272 273 271 269 266 259 238 221 217 231 247 244 254 268 275
264 267 262 263 274 279 280 266 258 259 263 266 268 270 270 272 275 271 268 266 269 273 277 276 271 273 279 279 273 265 256 248 246 254 264 271 278 289 299 302 299 289 278 274
253 259 258 255 267 272 273 271 264 260 265 267 267 264 268 275 267 261 261 257 260 258 256 256 266 267 277 289 288 290 301 307 306 305 304 303 298 294 285 276 268 266 265 265